Погода в Нижних

Россия / Вологодская область     59°17′58″N   36°46′46″E
темп.,
°C
ветер,
м/с
пор.,
м/с
влажн.,
%
обл.,
%
осадки,
мм/ч
давл.,
гПа
погр.,
м
5 марта, пт
пт500:00−10зсз349664 0.0 100173
03:00−10зсз249679 0.1 100386
06:00−10сз2396100 0.3 100378
09:00−9ссз379399 0.5 1005423
12:00−8ссз367977 0.0 1007669
15:00−6зсз357539 0.0 1009853
18:00−9з348644 0.0 101061
21:00−9сз489471 0.1 1012319
6 марта, сб
сб600:00−15ссз339271 0.0 101344
03:00−16сз239535 0.0 101521
06:00−18зсз22970 0.0 101520
09:00−15з239614 0.0 1016120
12:00−10зюз349289 0.1 1015337
15:00−7зюз368795 0.1 1013735
18:00−9ююз3691100 0.1 1010137
21:00−9ююз5128886 0.1 1006377
7 марта, вс
вс700:00−7ююз71393100 0.4 1000892
03:00−5ююз71494100 1.5 995876
06:00−3ююз61295100 1.8 990922
09:00−5сз61090100 3.9 988765
12:00−6сз4683100 0.2 989928
15:00−6сз4673100 0.3 990945
18:00−10зсз2384100 0.0 99131
21:00−13сз238776 0.0 99225
8 марта, пн
пн800:00−13сз3792100 0.0 993156
03:00−11сз51094100 0.2 994492
06:00−10ссз51093100 0.6 996664
09:00−11с61089100 0.8 999753
12:00−11с6987100 0.1 1002871
15:00−10с6987100 0.3 1005933
18:00−13ссз51092100 0.1 1008556
21:00−16ссз41094100 0.2 1011410
9 марта, вт
вт900:00−19с3897100 0.0 1014202
03:00−23ссз369879 0.0 1016120
06:00−26с35980 0.0 101894
09:00−25ссз36950 0.0 1019212
12:00−19ссз248936 0.0 1020345
15:00−16ссз248343 0.0 1020494
18:00−19с129320 0.0 102020
21:00−23св129413 0.0 102220